SES-2

Last updated on Sat Oct 25 2025 00:02:49 GMT+0000 (Coordinated Universal Time)

1 37809U 11049A 25297.60171492 -.00000184 00000+0 00000+0 0 9999 2 37809 0.0169 310.2132 0002300 268.4802 304.1974 1.00273183 51607
UTC large
Height (km)
Speed (km/s)
/
Latitude / Longitude
Inclination (degrees)
Orbital Period (minutes)
Azimuth
Elevation
Range (km)
Doppler Factor

Next 0 passes for location: London (51.5072 / 0.1276)

Sorry there are no passes over London.